| time (UTC) | temp C | wind direction | speed KPH | gust KPH | rain 1hr cm | rain 24hr cm | rain mn cm | humidity % | barometer mb |
| 20260505153055 | 11 | 19 | 11.3 | 27.4 | 0.00 | 0.13 | 0.13 | 65 | 1009.7 |
| 20260505152530 | 11 | 0 | 4.8 | 27.4 | 0.00 | 0.13 | 0.13 | 66 | 1009.8 |
| 20260505152030 | 11 | 84 | 8.0 | 27.4 | 0.00 | 0.13 | 0.13 | 65 | 1009.8 |
| 20260505151549 | 10 | 35 | 3.2 | 25.7 | 0.00 | 0.13 | 0.13 | 66 | 1009.9 |
| 20260505151029 | 10 | 0 | 6.4 | 25.7 | 0.00 | 0.13 | 0.13 | 65 | 1009.8 |
| 20260505150529 | 10 | 0 | 4.8 | 29.0 | 0.00 | 0.13 | 0.13 | 65 | 1009.7 |
| 20260505140530 | 10 | 77 | 9.7 | 30.6 | 0.00 | 0.13 | 0.13 | 67 | 1009.6 |
| 20260505125029 | 11 | 67 | 8.0 | 27.4 | 0.00 | 0.13 | 0.13 | 63 | 1008.3 |
| 20260505124544 | 11 | 39 | 9.7 | 35.4 | 0.00 | 0.13 | 0.13 | 63 | 1008.2 |
| 20260505124032 | 11 | 34 | 9.7 | 35.4 | 0.00 | 0.13 | 0.13 | 63 | 1008.2 |
| 20260505123530 | 11 | 51 | 4.8 | 22.5 | 0.00 | 0.13 | 0.13 | 65 | 1008.2 |
| 20260505123101 | 11 | 39 | 1.6 | 17.7 | 0.00 | 0.13 | 0.13 | 65 | 1008.1 |
| 20260505122529 | 11 | 44 | 3.2 | 16.1 | 0.00 | 0.13 | 0.13 | 65 | 1008.1 |
| 20260505122033 | 11 | 32 | 1.6 | 27.4 | 0.00 | 0.13 | 0.13 | 65 | 1008.0 |
| 20260505121540 | 11 | 43 | 1.6 | 35.4 | 0.00 | 0.13 | 0.13 | 64 | 1007.8 |
| 20260505121033 | 11 | 77 | 1.6 | 35.4 | 0.00 | 0.13 | 0.13 | 63 | 1007.7 |
| 20260505120532 | 11 | 28 | 9.7 | 35.4 | 0.00 | 0.13 | 0.13 | 63 | 1007.4 |
| 20260505120048 | 11 | 25 | 8.0 | 29.0 | 0.00 | 0.13 | 0.13 | 63 | 1007.1 |
| 20260505115529 | 11 | 339 | 6.4 | 29.0 | 0.00 | 0.13 | 0.13 | 63 | 1007.1 |
| 20260505115030 | 11 | 4 | 1.6 | 20.9 | 0.00 | 0.13 | 0.13 | 66 | 1007.0 |
| 20260505114603 | 11 | 39 | 4.8 | 25.7 | 0.00 | 0.13 | 0.13 | 66 | 1007.0 |
| 20260505114030 | 11 | 42 | 4.8 | 27.4 | 0.00 | 0.13 | 0.13 | 66 | 1006.9 |
| 20260505113529 | 11 | 39 | 9.7 | 27.4 | 0.00 | 0.13 | 0.13 | 65 | 1006.8 |
| 20260505113042 | 11 | 28 | 6.4 | 20.9 | 0.00 | 0.13 | 0.13 | 66 | 1006.7 |
| 20260505112532 | 11 | 58 | 4.8 | 22.5 | 0.00 | 0.13 | 0.13 | 66 | 1006.5 |
| 20260505112029 | 11 | 34 | 4.8 | 22.5 | 0.00 | 0.13 | 0.13 | 67 | 1006.4 |
| 20260505111558 | 11 | 13 | 4.8 | 19.3 | 0.00 | 0.13 | 0.13 | 67 | 1006.2 |
| 20260505111033 | 11 | 29 | 3.2 | 14.5 | 0.00 | 0.13 | 0.13 | 67 | 1006.2 |
| 20260505110529 | 11 | 40 | 3.2 | 32.2 | 0.00 | 0.13 | 0.13 | 66 | 1006.1 |
| 20260505102032 | 11 | 27 | 4.8 | 17.7 | 0.00 | 0.13 | 0.13 | 65 | 1005.7 |
| 20260505101541 | 11 | 59 | 1.6 | 17.7 | 0.00 | 0.13 | 0.13 | 67 | 1005.6 |
| 20260505101030 | 11 | 57 | 0.0 | 17.7 | 0.00 | 0.13 | 0.13 | 67 | 1005.7 |
| 20260505100530 | 11 | 31 | 4.8 | 19.3 | 0.00 | 0.13 | 0.13 | 68 | 1005.7 |
| 20260505100043 | 12 | 42 | 3.2 | 19.3 | 0.00 | 0.13 | 0.13 | 69 | 1005.5 |
| 20260505095532 | 11 | 0 | 4.8 | 25.7 | 0.00 | 0.13 | 0.13 | 69 | 1005.5 |
| 20260505095029 | 11 | 0 | 6.4 | 25.7 | 0.00 | 0.13 | 0.13 | 69 | 1005.4 |
| 20260505094547 | 11 | 0 | 1.6 | 20.9 | 0.00 | 0.13 | 0.13 | 70 | 1005.4 |
| 20260505094031 | 12 | 26 | 3.2 | 29.0 | 0.00 | 0.13 | 0.13 | 70 | 1005.3 |
| 20260505093529 | 12 | 49 | 8.0 | 29.0 | 0.00 | 0.13 | 0.13 | 70 | 1005.2 |
| 20260505093043 | 12 | 44 | 6.4 | 24.1 | 0.00 | 0.13 | 0.13 | 71 | 1005.2 |
| 20260505092530 | 12 | 26 | 4.8 | 24.1 | 0.00 | 0.13 | 0.13 | 73 | 1005.3 |
| 20260505092030 | 12 | 37 | 1.6 | 17.7 | 0.00 | 0.13 | 0.13 | 75 | 1005.4 |
| 20260505091545 | 12 | 81 | 3.2 | 17.7 | 0.00 | 0.13 | 0.13 | 76 | 1005.4 |
| 20260505091029 | 12 | 0 | 4.8 | 17.7 | 0.00 | 0.13 | 0.13 | 76 | 1005.4 |
| 20260505090530 | 12 | 35 | 3.2 | 22.5 | 0.00 | 0.13 | 0.13 | 77 | 1005.3 |
| 20260505090050 | 12 | 56 | 6.4 | 27.4 | 0.00 | 0.13 | 0.13 | 78 | 1005.1 |
| 20260505085530 | 12 | 0 | 3.2 | 27.4 | 0.00 | 0.13 | 0.13 | 81 | 1004.9 |
| 20260505085030 | 12 | 62 | 6.4 | 27.4 | 0.00 | 0.13 | 0.13 | 81 | 1004.8 |
| 20260505084541 | 12 | 36 | 3.2 | 19.3 | 0.00 | 0.13 | 0.13 | 83 | 1004.6 |
| 20260505084029 | 12 | 51 | 1.6 | 22.5 | 0.00 | 0.13 | 0.13 | 88 | 1004.6 |
| 20260505083529 | 11 | 18 | 4.8 | 22.5 | 0.00 | 0.13 | 0.13 | 90 | 1004.6 |
| 20260505083050 | 11 | 34 | 1.6 | 16.1 | 0.00 | 0.13 | 0.13 | 93 | 1004.4 |
| 20260505082529 | 11 | 63 | 3.2 | 17.7 | 0.00 | 0.13 | 0.13 | 92 | 1004.1 |
| 20260505082031 | 11 | 47 | 3.2 | 17.7 | 0.00 | 0.13 | 0.13 | 93 | 1004.0 |
| 20260505081548 | 11 | 0 | 3.2 | 25.7 | 0.00 | 0.13 | 0.13 | 93 | 1004.1 |
| 20260505081030 | 12 | 63 | 8.0 | 29.0 | 0.00 | 0.13 | 0.13 | 93 | 1004.2 |
| 20260505080529 | 12 | 42 | 6.4 | 29.0 | 0.05 | 0.13 | 0.13 | 93 | 1004.4 |
| 20260505080046 | 12 | 16 | 3.2 | 22.5 | 0.13 | 0.13 | 0.13 | 93 | 1004.5 |
| 20260505075529 | 13 | 0 | 1.6 | 11.3 | 0.13 | 0.13 | 0.13 | 94 | 1004.2 |
| 20260505075029 | 13 | 0 | 0.0 | 12.9 | 0.13 | 0.13 | 0.13 | 95 | 1004.0 |
| 20260505074545 | 13 | 0 | 0.0 | 12.9 | 0.13 | 0.13 | 0.13 | 94 | 1003.9 |
| 20260505074030 | 13 | 24 | 0.0 | 12.9 | 0.13 | 0.13 | 0.13 | 94 | 1003.8 |
| 20260505073530 | 13 | 0 | 0.0 | 12.9 | 0.13 | 0.13 | 0.13 | 94 | 1003.8 |
| 20260505073043 | 13 | 0 | 0.0 | 3.2 | 0.13 | 0.13 | 0.13 | 94 | 1003.7 |
| 20260505072532 | 13 | 0 | 0.0 | 9.7 | 0.13 | 0.13 | 0.13 | 93 | 1003.7 |
| 20260505072032 | 13 | 0 | 0.0 | 12.9 | 0.13 | 0.13 | 0.13 | 92 | 1003.4 |
| 20260505071541 | 14 | 69 | 0.0 | 12.9 | 0.13 | 0.13 | 0.13 | 90 | 1003.2 |
| 20260505071029 | 15 | 0 | 1.6 | 12.9 | 0.13 | 0.13 | 0.13 | 83 | 1003.4 |
| 20260505070530 | 16 | 0 | 0.0 | 16.1 | 0.03 | 0.03 | 0.03 | 78 | 1003.7 |
| 20260505070051 | 17 | 0 | 0.0 | 16.1 | 0.00 | 0.00 | 0.00 | 75 | 1003.4 |
| 20260505065530 | 17 | 0 | 3.2 | 16.1 | 0.00 | 0.00 | 0.00 | 73 | 1003.1 |
| 20260505065029 | 18 | 39 | 0.0 | 4.8 | 0.00 | 0.00 | 0.00 | 75 | 1003.1 |
| 20260505064557 | 19 | 0 | 0.0 | 3.2 | 0.00 | 0.00 | 0.00 | 78 | 1003.3 |
| 20260505064029 | 20 | 0 | 0.0 | 0.0 | 0.00 | 0.00 | 0.00 | 79 | 1003.3 |
| 20260505063527 | 20 | 0 | 0.0 | 0.0 | 0.00 | 0.00 | 0.00 | 78 | 1002.9 |
| 20260505063050 | 20 | 0 | 0.0 | 0.0 | 0.00 | 0.00 | 0.00 | 78 | 1002.9 |
| 20260505062530 | 20 | 0 | 0.0 | 0.0 | 0.00 | 0.00 | 0.00 | 78 | 1002.8 |
| 20260505062030 | 20 | 0 | 0.0 | 0.0 | 0.00 | 0.00 | 0.00 | 78 | 1002.7 |
| 20260505061554 | 20 | 0 | 0.0 | 0.0 | 0.00 | 0.00 | 0.00 | 79 | 1002.7 |
| 20260505061031 | 19 | 0 | 0.0 | 0.0 | 0.00 | 0.00 | 0.00 | 80 | 1002.6 |
| 20260505060529 | 19 | 0 | 0.0 | 0.0 | 0.00 | 0.00 | 0.00 | 80 | 1002.4 |
| 20260505060049 | 19 | 0 | 0.0 | 0.0 | 0.00 | 0.00 | 0.00 | 79 | 1002.5 |
| 20260505055529 | 19 | 0 | 0.0 | 0.0 | 0.00 | 0.00 | 0.00 | 79 | 1002.6 |
| 20260505055027 | 19 | 0 | 0.0 | 0.0 | 0.00 | 0.00 | 0.00 | 78 | 1002.6 |
| 20260505054557 | 20 | 0 | 0.0 | 0.0 | 0.00 | 0.00 | 0.00 | 77 | 1002.6 |
| 20260505054029 | 20 | 0 | 0.0 | 0.0 | 0.00 | 0.00 | 0.00 | 77 | 1002.2 |
| 20260505053529 | 19 | 0 | 0.0 | 0.0 | 0.00 | 0.00 | 0.00 | 76 | 1002.1 |
| 20260505053051 | 19 | 0 | 0.0 | 0.0 | 0.00 | 0.00 | 0.00 | 78 | 1002.2 |
| 20260505052529 | 20 | 0 | 0.0 | 0.0 | 0.00 | 0.00 | 0.00 | 78 | 1002.3 |
| 20260505052026 | 20 | 0 | 0.0 | 0.0 | 0.00 | 0.00 | 0.00 | 78 | 1002.3 |
| 20260505051541 | 20 | 0 | 0.0 | 0.0 | 0.00 | 0.00 | 0.00 | 77 | 1002.1 |
| 20260505051029 | 20 | 0 | 0.0 | 0.0 | 0.00 | 0.00 | 0.00 | 78 | 1001.9 |
| 20260505050533 | 20 | 0 | 0.0 | 0.0 | 0.00 | 0.00 | 0.00 | 78 | 1001.9 |
| 20260505041600 | 21 | 0 | 0.0 | 0.0 | 0.00 | 0.00 | 0.00 | 73 | 1001.7 |
| 20260505041029 | 21 | 0 | 0.0 | 0.0 | 0.00 | 0.00 | 0.00 | 73 | 1001.8 |
| 20260505040529 | 21 | 0 | 0.0 | 0.0 | 0.00 | 0.00 | 0.00 | 72 | 1001.8 |
| 20260505040042 | 21 | 0 | 0.0 | 0.0 | 0.00 | 0.00 | 0.00 | 72 | 1001.7 |
| 20260505035529 | 21 | 0 | 0.0 | 1.6 | 0.00 | 0.00 | 0.00 | 71 | 1001.4 |
| 20260505035029 | 21 | 0 | 0.0 | 1.6 | 0.00 | 0.00 | 0.00 | 71 | 1001.5 |
| 20260505034545 | 22 | 0 | 0.0 | 1.6 | 0.00 | 0.00 | 0.00 | 70 | 1001.6 |
| 20260505034029 | 22 | 0 | 0.0 | 1.6 | 0.00 | 0.00 | 0.00 | 70 | 1001.9 |
| 20260505033531 | 22 | 0 | 0.0 | 1.6 | 0.00 | 0.00 | 0.00 | 69 | 1002.0 |
| 20260505033043 | 22 | 0 | 0.0 | 0.0 | 0.00 | 0.00 | 0.00 | 69 | 1001.9 |
| 20260505032529 | 22 | 0 | 0.0 | 0.0 | 0.00 | 0.00 | 0.00 | 69 | 1002.1 |
| 20260505032033 | 22 | 0 | 0.0 | 1.6 | 0.00 | 0.00 | 0.00 | 68 | 1002.1 |
| 20260505031541 | 22 | 0 | 0.0 | 1.6 | 0.00 | 0.00 | 0.00 | 68 | 1002.1 |
| 20260505031029 | 22 | 0 | 0.0 | 12.9 | 0.00 | 0.00 | 0.00 | 67 | 1002.3 |
| 20260505030530 | 22 | 0 | 0.0 | 12.9 | 0.00 | 0.00 | 0.00 | 67 | 1002.4 |
| 20260505030044 | 22 | 0 | 0.0 | 3.2 | 0.00 | 0.00 | 0.00 | 67 | 1002.4 |
| 20260505025530 | 22 | 0 | 0.0 | 3.2 | 0.00 | 0.00 | 0.00 | 66 | 1002.3 |
| 20260505025029 | 22 | 0 | 0.0 | 3.2 | 0.00 | 0.00 | 0.00 | 66 | 1002.1 |
| 20260505024547 | 22 | 136 | 0.0 | 3.2 | 0.00 | 0.00 | 0.00 | 66 | 1002.1 |
| 20260505024030 | 22 | 0 | 0.0 | 0.0 | 0.00 | 0.00 | 0.00 | 65 | 1002.2 |
| 20260505023530 | 22 | 0 | 0.0 | 0.0 | 0.00 | 0.00 | 0.00 | 65 | 1002.0 |
| 20260505023048 | 22 | 0 | 0.0 | 0.0 | 0.00 | 0.00 | 0.00 | 65 | 1002.3 |
| 20260505022532 | 23 | 0 | 0.0 | 0.0 | 0.00 | 0.00 | 0.00 | 64 | 1002.3 |
| 20260505022031 | 23 | 0 | 0.0 | 0.0 | 0.00 | 0.00 | 0.00 | 64 | 1002.4 |
| 20260505021547 | 23 | 0 | 0.0 | 1.6 | 0.00 | 0.00 | 0.00 | 63 | 1002.3 |
| 20260505021030 | 23 | 0 | 0.0 | 1.6 | 0.00 | 0.00 | 0.00 | 63 | 1002.1 |
| 20260505020529 | 23 | 0 | 0.0 | 0.0 | 0.00 | 0.00 | 0.00 | 62 | 1001.9 |
| 20260505020043 | 23 | 0 | 0.0 | 4.8 | 0.00 | 0.00 | 0.00 | 62 | 1001.7 |
| 20260505015530 | 23 | 0 | 0.0 | 4.8 | 0.00 | 0.00 | 0.00 | 61 | 1001.8 |
| 20260505015033 | 23 | 0 | 0.0 | 4.8 | 0.00 | 0.00 | 0.00 | 61 | 1001.4 |
| 20260505014545 | 23 | 0 | 0.0 | 4.8 | 0.00 | 0.00 | 0.00 | 60 | 1001.5 |
| 20260505014030 | 23 | 0 | 0.0 | 4.8 | 0.00 | 0.00 | 0.00 | 60 | 1001.4 |
| 20260505013532 | 23 | 0 | 0.0 | 3.2 | 0.00 | 0.00 | 0.00 | 60 | 1001.4 |
| 20260505013045 | 23 | 0 | 0.0 | 3.2 | 0.00 | 0.00 | 0.00 | 59 | 1001.1 |
| 20260505012530 | 23 | 0 | 0.0 | 3.2 | 0.00 | 0.00 | 0.00 | 58 | 1001.1 |
| 20260505012030 | 23 | 0 | 0.0 | 0.0 | 0.00 | 0.00 | 0.00 | 58 | 1000.9 |
| 20260505011543 | 23 | 0 | 0.0 | 0.0 | 0.00 | 0.00 | 0.00 | 57 | 1000.9 |
| 20260505011029 | 24 | 0 | 0.0 | 0.0 | 0.00 | 0.00 | 0.00 | 57 | 1001.0 |
| 20260505010529 | 24 | 0 | 0.0 | 0.0 | 0.00 | 0.00 | 0.00 | 56 | 1000.9 |
| 20260505010045 | 24 | 0 | 0.0 | 0.0 | 0.00 | 0.00 | 0.00 | 56 | 1000.9 |
| 20260505005530 | 24 | 0 | 0.0 | 0.0 | 0.00 | 0.00 | 0.00 | 55 | 1000.9 |
| 20260505005030 | 24 | 0 | 0.0 | 0.0 | 0.00 | 0.00 | 0.00 | 55 | 1000.9 |
| 20260505004545 | 25 | 0 | 0.0 | 0.0 | 0.00 | 0.00 | 0.00 | 54 | 1001.0 |
| 20260505004029 | 25 | 0 | 0.0 | 1.6 | 0.00 | 0.00 | 0.00 | 53 | 1001.0 |
| 20260505003530 | 25 | 0 | 0.0 | 1.6 | 0.00 | 0.00 | 0.00 | 53 | 1001.0 |
| 20260505003042 | 25 | 0 | 0.0 | 1.6 | 0.00 | 0.00 | 0.00 | 53 | 1001.0 |
| 20260505002533 | 25 | 0 | 0.0 | 0.0 | 0.00 | 0.00 | 0.00 | 52 | 1001.2 |
| 20260505002029 | 25 | 0 | 0.0 | 3.2 | 0.00 | 0.00 | 0.00 | 52 | 1001.2 |
| 20260505001549 | 25 | 0 | 0.0 | 4.8 | 0.00 | 0.00 | 0.00 | 51 | 1001.3 |
| 20260505001029 | 25 | 0 | 0.0 | 4.8 | 0.00 | 0.00 | 0.00 | 51 | 1001.3 |
| 20260505000529 | 25 | 0 | 0.0 | 1.6 | 0.00 | 0.00 | 0.00 | 51 | 1001.2 |
| 20260505000054 | 26 | 0 | 0.0 | 1.6 | 0.00 | 0.00 | 0.00 | 50 | 1001.3 |
| 20260504235530 | 26 | 0 | 0.0 | 3.2 | 0.00 | 0.00 | 0.00 | 49 | 1001.3 |
| 20260504235030 | 26 | 0 | 0.0 | 4.8 | 0.00 | 0.00 | 0.00 | 49 | 1001.4 |
| 20260504234546 | 26 | 0 | 0.0 | 4.8 | 0.00 | 0.00 | 0.00 | 48 | 1001.4 |
| 20260504234029 | 26 | 0 | 0.0 | 6.4 | 0.00 | 0.00 | 0.00 | 48 | 1001.3 |
| 20260504233529 | 26 | 0 | 0.0 | 6.4 | 0.00 | 0.00 | 0.00 | 47 | 1001.3 |
| 20260504233041 | 26 | 0 | 0.0 | 4.8 | 0.00 | 0.00 | 0.00 | 47 | 1001.3 |
| 20260504232530 | 26 | 0 | 0.0 | 3.2 | 0.00 | 0.00 | 0.00 | 47 | 1001.5 |
| 20260504232031 | 26 | 0 | 0.0 | 3.2 | 0.00 | 0.00 | 0.00 | 46 | 1001.5 |
| 20260504231555 | 27 | 0 | 0.0 | 3.2 | 0.00 | 0.00 | 0.00 | 45 | 1001.4 |
| 20260504231031 | 27 | 0 | 0.0 | 1.6 | 0.00 | 0.00 | 0.00 | 45 | 1001.4 |
| 20260504230530 | 27 | 0 | 0.0 | 1.6 | 0.00 | 0.00 | 0.00 | 45 | 1001.4 |
| 20260504230041 | 27 | 0 | 0.0 | 1.6 | 0.00 | 0.00 | 0.00 | 44 | 1001.4 |
| 20260504225531 | 27 | 0 | 0.0 | 1.6 | 0.00 | 0.00 | 0.00 | 45 | 1001.4 |
| 20260504225029 | 27 | 0 | 0.0 | 4.8 | 0.00 | 0.00 | 0.00 | 44 | 1001.4 |
| 20260504224543 | 27 | 0 | 0.0 | 4.8 | 0.00 | 0.00 | 0.00 | 43 | 1001.4 |
| 20260504224032 | 27 | 0 | 0.0 | 3.2 | 0.00 | 0.00 | 0.00 | 43 | 1001.4 |
| 20260504223534 | 27 | 0 | 0.0 | 4.8 | 0.00 | 0.00 | 0.00 | 44 | 1001.3 |
| 20260504223046 | 27 | 0 | 0.0 | 9.7 | 0.00 | 0.00 | 0.00 | 43 | 1001.4 |
| 20260504222530 | 27 | 0 | 0.0 | 9.7 | 0.00 | 0.00 | 0.00 | 44 | 1001.3 |
| 20260504222029 | 27 | 0 | 0.0 | 9.7 | 0.00 | 0.00 | 0.00 | 42 | 1001.3 |
| 20260504221551 | 28 | 0 | 0.0 | 1.6 | 0.00 | 0.00 | 0.00 | 42 | 1001.3 |
| 20260504221029 | 28 | 158 | 0.0 | 4.8 | 0.00 | 0.00 | 0.00 | 42 | 1001.3 |
| 20260504220529 | 28 | 202 | 0.0 | 4.8 | 0.00 | 0.00 | 0.00 | 43 | 1001.4 |
| 20260504220042 | 28 | 0 | 0.0 | 6.4 | 0.00 | 0.00 | 0.00 | 42 | 1001.4 |
| 20260504215529 | 28 | 0 | 0.0 | 6.4 | 0.00 | 0.00 | 0.00 | 42 | 1001.4 |
| 20260504215036 | 28 | 0 | 0.0 | 6.4 | 0.00 | 0.00 | 0.00 | 41 | 1001.4 |
| 20260504214545 | 28 | 0 | 0.0 | 4.8 | 0.00 | 0.00 | 0.00 | 41 | 1001.5 |
| 20260504214033 | 28 | 0 | 0.0 | 4.8 | 0.00 | 0.00 | 0.00 | 41 | 1001.5 |
| 20260504213530 | 28 | 0 | 0.0 | 4.8 | 0.00 | 0.00 | 0.00 | 40 | 1001.5 |
| 20260504213044 | 29 | 0 | 0.0 | 6.4 | 0.00 | 0.00 | 0.00 | 40 | 1001.4 |
| 20260504212532 | 30 | 212 | 0.0 | 6.4 | 0.00 | 0.00 | 0.00 | 39 | 1001.5 |
| 20260504212031 | 30 | 0 | 0.0 | 6.4 | 0.00 | 0.00 | 0.00 | 38 | 1001.5 |
| 20260504211550 | 30 | 0 | 0.0 | 4.8 | 0.00 | 0.00 | 0.00 | 39 | 1001.7 |
| 20260504211031 | 30 | 0 | 0.0 | 4.8 | 0.00 | 0.00 | 0.00 | 38 | 1001.7 |
| 20260504210529 | 30 | 229 | 0.0 | 3.2 | 0.00 | 0.00 | 0.00 | 39 | 1001.7 |
| 20260504210105 | 30 | 0 | 0.0 | 6.4 | 0.00 | 0.00 | 0.00 | 39 | 1001.7 |
| 20260504205530 | 30 | 0 | 0.0 | 6.4 | 0.00 | 0.00 | 0.00 | 39 | 1001.8 |
| 20260504205032 | 30 | 0 | 0.0 | 4.8 | 0.00 | 0.00 | 0.00 | 38 | 1001.8 |
| 20260504204548 | 30 | 212 | 0.0 | 6.4 | 0.00 | 0.00 | 0.00 | 38 | 1001.9 |
| 20260504204030 | 30 | 0 | 0.0 | 6.4 | 0.00 | 0.00 | 0.00 | 38 | 1002.0 |
| 20260504203530 | 30 | 0 | 0.0 | 4.8 | 0.00 | 0.00 | 0.00 | 36 | 1002.1 |
| 20260504203046 | 30 | 0 | 0.0 | 4.8 | 0.00 | 0.00 | 0.00 | 36 | 1002.1 |
| 20260504202530 | 30 | 0 | 0.0 | 4.8 | 0.00 | 0.00 | 0.00 | 37 | 1002.1 |
| 20260504202029 | 30 | 0 | 0.0 | 3.2 | 0.00 | 0.00 | 0.00 | 35 | 1002.2 |
| 20260504201549 | 30 | 0 | 0.0 | 0.0 | 0.00 | 0.00 | 0.00 | 36 | 1002.3 |
| 20260504201029 | 30 | 0 | 0.0 | 6.4 | 0.00 | 0.00 | 0.00 | 35 | 1002.3 |
| 20260504200531 | 30 | 0 | 0.0 | 6.4 | 0.00 | 0.00 | 0.00 | 36 | 1002.5 |
| 20260504200046 | 30 | 0 | 0.0 | 6.4 | 0.00 | 0.00 | 0.00 | 38 | 1002.4 |
| 20260504195529 | 30 | 0 | 0.0 | 6.4 | 0.00 | 0.00 | 0.00 | 36 | 1002.6 |
| 20260504195029 | 30 | 0 | 0.0 | 1.6 | 0.00 | 0.00 | 0.00 | 36 | 1002.7 |
| 20260504194600 | 30 | 0 | 0.0 | 1.6 | 0.00 | 0.00 | 0.00 | 36 | 1002.7 |
| 20260504194030 | 30 | 198 | 0.0 | 0.0 | 0.00 | 0.00 | 0.00 | 36 | 1002.9 |
| 20260504193529 | 30 | 0 | 0.0 | 0.0 | 0.00 | 0.00 | 0.00 | 37 | 1003.0 |
| 20260504193042 | 30 | 0 | 0.0 | 0.0 | 0.00 | 0.00 | 0.00 | 37 | 1003.1 |
| 20260504192530 | 30 | 0 | 0.0 | 0.0 | 0.00 | 0.00 | 0.00 | 36 | 1003.1 |
| 20260504192032 | 30 | 0 | 0.0 | 1.6 | 0.00 | 0.00 | 0.00 | 36 | 1003.1 |
| 20260504191547 | 29 | 0 | 0.0 | 1.6 | 0.00 | 0.00 | 0.00 | 37 | 1003.2 |
| 20260504191031 | 29 | 0 | 0.0 | 0.0 | 0.00 | 0.00 | 0.00 | 37 | 1003.2 |
| 20260504190532 | 29 | 0 | 0.0 | 0.0 | 0.00 | 0.00 | 0.00 | 39 | 1003.3 |
| 20260504185532 | 28 | 0 | 0.0 | 0.0 | 0.00 | 0.00 | 0.00 | 40 | 1003.4 |
| 20260504185035 | 28 | 0 | 0.0 | 6.4 | 0.00 | 0.00 | 0.00 | 39 | 1003.4 |
| 20260504184555 | 28 | 0 | 0.0 | 6.4 | 0.00 | 0.00 | 0.00 | 37 | 1003.4 |
| 20260504184030 | 29 | 0 | 0.0 | 1.6 | 0.00 | 0.00 | 0.00 | 38 | 1003.5 |
| 20260504183533 | 28 | 0 | 0.0 | 1.6 | 0.00 | 0.00 | 0.00 | 39 | 1003.5 |
| 20260504183044 | 28 | 0 | 0.0 | 1.6 | 0.00 | 0.00 | 0.00 | 39 | 1003.5 |
| 20260504182530 | 28 | 0 | 0.0 | 1.6 | 0.00 | 0.00 | 0.00 | 40 | 1003.6 |
| 20260504182030 | 28 | 0 | 0.0 | 0.0 | 0.00 | 0.00 | 0.00 | 40 | 1003.6 |
| 20260504181547 | 28 | 0 | 0.0 | 0.0 | 0.00 | 0.00 | 0.00 | 39 | 1003.6 |
| 20260504181030 | 28 | 0 | 0.0 | 0.0 | 0.00 | 0.00 | 0.00 | 41 | 1003.8 |
| 20260504180530 | 27 | 0 | 0.0 | 0.0 | 0.00 | 0.00 | 0.00 | 40 | 1003.7 |
| 20260504180114 | 27 | 0 | 0.0 | 0.0 | 0.00 | 0.00 | 0.00 | 42 | 1003.9 |
| 20260504175530 | 27 | 0 | 0.0 | 0.0 | 0.00 | 0.00 | 0.00 | 41 | 1003.8 |
| 20260504175033 | 26 | 0 | 0.0 | 4.8 | 0.00 | 0.00 | 0.00 | 43 | 1003.9 |
| 20260504174549 | 26 | 0 | 0.0 | 4.8 | 0.00 | 0.00 | 0.00 | 41 | 1003.9 |
| 20260504174030 | 26 | 226 | 0.0 | 3.2 | 0.00 | 0.00 | 0.00 | 42 | 1003.9 |
| 20260504173530 | 26 | 0 | 0.0 | 3.2 | 0.00 | 0.00 | 0.00 | 44 | 1004.0 |
| 20260504173057 | 26 | 226 | 0.0 | 1.6 | 0.00 | 0.00 | 0.00 | 43 | 1004.0 |
| 20260504172532 | 26 | 0 | 0.0 | 1.6 | 0.00 | 0.00 | 0.00 | 43 | 1004.1 |
| 20260504172029 | 26 | 0 | 0.0 | 1.6 | 0.00 | 0.00 | 0.00 | 43 | 1004.3 |
| 20260504171551 | 26 | 0 | 0.0 | 1.6 | 0.00 | 0.00 | 0.00 | 43 | 1004.0 |
| 20260504171030 | 26 | 0 | 0.0 | 1.6 | 0.00 | 0.00 | 0.00 | 45 | 1004.0 |
| 20260504170532 | 25 | 0 | 0.0 | 1.6 | 0.00 | 0.00 | 0.00 | 45 | 1003.9 |